YAOGAN-29

Last updated on Thu Nov 21 2024 00:02:13 GMT+0000 (Coordinated Universal Time)

1 41038U 15069A 24325.55642184 .00000933 00000+0 12387-3 0 9996 2 41038 98.0492 340.8841 0002937 89.2171 270.9378 14.82175889485621
UTC large
Height (km)
Speed (km/s)
/
Latitude / Longitude
Inclination (degrees)
Orbital Period (minutes)
Azimuth
Elevation
Range (km)
Doppler Factor

Next 0 passes for location: London (51.5072 / 0.1276)

Sorry there are no passes over London.